This demonstration page uses our WeatherBlox Daily Observations layout. Learn more.

Left ArrowRight Arrow

Hourly Observations for July 12, 2015

Temp ( °F °C ) Dew Point ( °F °C ) Humidity (%) Winds ( mph kmh ) Pressure ( in mb ) Visibility ( mi km ) Precip ( " mm )
12:51 am 00:51 Clear 77 25 72 22.2 85 85 WSW 3 6 30.08 1019 10 16 N/A
1:51 am 01:51 Clear 73 22.8 69 20.6 87 87 N N/A 29.88 1012 10 16 N/A
3:51 am 03:51 Clear 73 22.8 67 19.4 81 81 NNE 3 6 29.89 1012 10 16 N/A
4:51 am 04:51 Clear 72 22.2 67 19.4 84 84 E 3 6 29.90 1013 10 16 N/A
5:51 am 05:51 Sunny 71 21.7 68 20 90 90 NW 3 6 29.94 1014 10 16 N/A
6:51 am 06:51 Sunny 75 23.9 67 19.4 76 76 N N/A 29.96 1015 10 16 N/A
7:51 am 07:51 Sunny 80 26.7 66 18.9 62 62 WNW 5 7 29.96 1015 10 16 N/A
8:51 am 08:51 Sunny 83 28.3 66 18.9 57 57 WNW 3 6 29.95 1014 10 16 N/A
9:51 am 09:51 Sunny 86 30 58 14.4 39 39 NW 6 9 30.01 1016 10 16 N/A
10:51 am 10:51 Sunny 90 32.2 62 16.7 39 39 N N/A 29.92 1013 10 16 N/A
11:51 am 11:51 Sunny 65 18.3 60 15.6 84 84 W 6 9 29.92 1013 10 16 N/A
12:51 pm 12:51 Sunny 98 36.7 59 15 27 27 WSW 7 11 29.85 1011 10 16 N/A
1:51 pm 13:51 Sunny 99 37.2 58 14.4 26 26 VRB 7 11 29.81 1010 10 16 N/A
2:20 pm 14:20 Sunny with Nearby Thunderstorms 96 35.6 62 16.7 32 32 VRB 5 7 29.65 1004 10 16 N/A
2:35 pm 14:35 Sunny 95 35 61 16 32 32 W 9 15 29.71 1006 10 16 N/A
2:51 pm 14:51 Sunny 93 33.9 62 16.7 36 36 W 9 15 29.71 1006 10 16 N/A
3:01 pm 15:01 Sunny with Nearby Thunderstorms 93 33.9 62 16.7 36 36 WSW 15 24 29.71 1006 10 16 N/A
3:16 pm 15:16 Sunny 91 32.8 58 14.4 33 33 W 16 26 29.71 1006 10 16 N/A
3:35 pm 15:35 Sunny with Nearby Thunderstorms 88 31.1 54 12.2 31 31 W 21 33 29.74 1007 10 16 N/A
3:49 pm 15:49 Sunny 84 29 61 16 45 45 N 17 28 29.77 1008 10 16 N/A
3:50 pm 15:50 Sunny 84 28.9 60 15.6 44 44 N 20 31 29.84 1011 10 16 N/A
3:57 pm 15:57 Sunny 85 29.4 60 15.6 43 43 NNW 18 30 29.77 1008 10 16 N/A
4:51 pm 16:51 Sunny 85 29.4 58 14.4 40 40 WNW 15 24 29.85 1011 10 16 N/A
5:51 pm 17:51 Mostly Sunny 85 29.4 56 13.3 37 37 NNW 17 28 29.71 1006 10 16 N/A
6:51 pm 18:51 Partly Cloudy 86 30 69 20.6 57 57 NW 18 30 29.78 1009 10 16 N/A
7:51 pm 19:51 Clear 82 27.8 56 13.3 41 41 WNW 10 17 29.89 1012 10 16 N/A
8:51 pm 20:51 Partly Cloudy 81 27.2 57 13.9 44 44 N 6 9 29.89 1012 10 16 N/A
9:51 pm 21:51 Partly Cloudy 80 26.7 58 14.4 47 47 SSW 7 11 29.91 1013 10 16 N/A
10:51 pm 22:51 Clear 50 10 45 7.2 83 83 N N/A 30.00 1016 10 16 N/A
11:51 pm 23:51 Clear 78 25.6 60 15.6 54 54 NNE 3 6 29.89 1012 10 16 N/A

Powered by AerisWeather